Lexington, NE

3:10 AM CDT on May 23, 2017 (GMT -0500)
Kelly

Weather History for KLXN - October, 2013

Change the Weather History Date:

Thursday, October 31, 2013

  Actual Average Record
Temperature  
Mean Temperature 43 °F -  
Max Temperature 60 °F 53 °F 78 °F (2001)
Min Temperature 26 °F 30 °F 17 °F (2002)
Degree Days  
Heating Degree Days 22    
Moisture  
Dew Point 32 °F    
Average Humidity 73    
Maximum Humidity 99    
Minimum Humidity 31    
Precipitation  
Precipitation 0.00 in - - ()
Sea Level Pressure  
Sea Level Pressure 29.69 in    
Wind  
Wind Speed 7 mph (WNW)    
Max Wind Speed 28 mph    
Max Gust Speed 37 mph    
Visibility 8 miles    
Events Fog    
Averages and records for this station are not official NWS values.
T = Trace of Precipitation, MM = Missing Value Source: NWS Daily Summary

Daily Weather History Graph

Daily Weather History Graph

Search for Another Location

Airport or City:

Trip Planner

Search our weather history database for the weather conditions in past years. The results will help you decide how hot, cold, wet, or windy it might be!

Date:

Astronomy

Oct. 31, 2013 Rise Set
Actual Time 8:08 AM CDT 6:36 PM CDT
Civil Twilight 7:40 AM CDT 7:04 PM CDT
Nautical Twilight 7:07 AM CDT 7:36 PM CDT
Astronomical Twilight 6:36 AM CDT 8:08 PM CDT
Moon 4:58 AM CDT (10/31) 4:56 PM CDT (10/31)
Length of Visible Light 11h 24m
Length of Day
10h 27m
Waning Crescent, 10% of the Moon is Illuminated
Oct 31
Waning Crescent
Nov 3
New
Nov 9
First Quarter
Nov 17
Full
Nov 25
Last Quarter

Hourly Weather History & Observations

Time (CDT) Temp. Windchill Dew Point Humidity Pressure Visibility Wind Dir Wind Speed Gust Speed Precip Events Conditions
12:15 AM 29.1 °F - 28.4 °F 97% 29.77 in 0.5 mi Calm Calm - N/A Fog Light Freezing Fog
12:35 AM 28.2 °F - 27.5 °F 97% 29.76 in 0.5 mi Calm Calm - N/A Fog Light Freezing Fog
12:55 AM 28.9 °F - 28.2 °F 97% 29.75 in 0.5 mi Calm Calm - N/A Fog Light Freezing Fog
1:15 AM 28.8 °F 25.0 °F 28.0 °F 97% 29.75 in 0.8 mi NNW 3.5 mph - N/A   Mostly Cloudy
1:35 AM 28.0 °F - 27.3 °F 97% 29.74 in 2.5 mi Calm Calm - N/A   Mostly Cloudy
1:55 AM 28.6 °F - 27.9 °F 97% 29.74 in 4.0 mi Calm Calm - N/A   Mostly Cloudy
2:15 AM 28.0 °F 22.8 °F 27.3 °F 97% 29.72 in 5.0 mi WNW 4.6 mph - N/A   Scattered Clouds
2:35 AM 27.5 °F 23.6 °F 26.6 °F 96% 29.71 in 4.0 mi NW 3.5 mph - N/A   Scattered Clouds
2:55 AM 27.5 °F 23.6 °F 26.6 °F 96% 29.73 in 0.5 mi NW 3.5 mph - N/A Fog Light Freezing Fog
3:15 AM 28.4 °F 24.6 °F 27.5 °F 96% 29.73 in 5.0 mi West 3.5 mph - N/A   Clear
3:35 AM 27.7 °F - 26.8 °F 96% 29.73 in 5.0 mi Calm Calm - N/A   Clear
3:55 AM 27.3 °F - 26.4 °F 96% 29.73 in 7.0 mi Calm Calm - N/A   Clear
4:15 AM 27.3 °F - 26.4 °F 96% 29.71 in 5.0 mi Calm Calm - N/A   Clear
4:35 AM 27.5 °F - 26.6 °F 96% 29.70 in 7.0 mi Calm Calm - N/A   Clear
4:55 AM 26.4 °F 19.8 °F 25.3 °F 96% 29.68 in 7.0 mi WNW 5.8 mph - N/A   Clear
5:15 AM 28.6 °F 22.4 °F 27.7 °F 96% 29.68 in 5.0 mi WNW 5.8 mph - N/A   Clear
5:35 AM 30.2 °F 26.7 °F 29.3 °F 96% 29.69 in 4.0 mi WNW 3.5 mph - N/A   Clear
5:55 AM 30.9 °F 25.2 °F 30.2 °F 97% 29.69 in 5.0 mi WNW 5.8 mph - N/A   Clear
6:15 AM 31.6 °F 24.4 °F 30.9 °F 97% 29.70 in 5.0 mi West 8.1 mph - N/A   Clear
6:35 AM 31.1 °F 24.5 °F 30.6 °F 98% 29.70 in 5.0 mi West 6.9 mph - N/A   Clear
6:55 AM 32.0 °F 24.2 °F 31.8 °F 99% 29.70 in 5.0 mi West 9.2 mph - N/A   Clear
7:15 AM 32.4 °F 24.6 °F 32.0 °F 99% 29.70 in 5.0 mi WNW 9.2 mph - N/A   Clear
7:35 AM 32.0 °F 25.6 °F 31.1 °F 96% 29.70 in 7.0 mi WNW 6.9 mph - N/A   Clear
7:55 AM 31.8 °F 25.4 °F 31.1 °F 97% 29.70 in 7.0 mi WNW 6.9 mph - N/A   Clear
8:15 AM 31.6 °F 23.1 °F 30.7 °F 96% 29.70 in 7.0 mi WNW 10.4 mph - N/A   Clear
8:35 AM 32.0 °F 24.2 °F 31.1 °F 96% 29.70 in 10.0 mi WNW 9.2 mph - N/A   Clear
8:55 AM 32.2 °F 25.8 °F 31.6 °F 98% 29.71 in 10.0 mi WNW 6.9 mph - N/A   Clear
9:15 AM 33.3 °F 27.9 °F 32.2 °F 96% 29.71 in 10.0 mi WNW 5.8 mph - N/A   Clear
9:35 AM 35.1 °F 27.9 °F 34.0 °F 96% 29.71 in 10.0 mi WNW 9.2 mph - N/A   Clear
9:55 AM 37.4 °F 29.8 °F 36.1 °F 95% 29.71 in 10.0 mi WNW 11.5 mph - N/A   Clear
10:15 AM 39.2 °F 30.5 °F 37.8 °F 95% 29.71 in 10.0 mi WNW 16.1 mph 25.3 mph N/A   Clear
10:35 AM 40.3 °F 32.2 °F 38.7 °F 94% 29.71 in 10.0 mi WNW 15.0 mph - N/A   Clear
10:55 AM 42.1 °F 33.9 °F 40.1 °F 93% 29.70 in 10.0 mi WNW 17.3 mph - N/A   Clear
11:15 AM 45.9 °F 39.4 °F 39.7 °F 79% 29.70 in 10.0 mi WNW 15.0 mph - N/A   Clear
11:35 AM 47.8 °F - 39.9 °F 74% 29.69 in 10.0 mi WNW 16.1 mph - N/A   Clear
11:55 AM 49.8 °F - 40.3 °F 70% 29.69 in 10.0 mi WNW 11.5 mph - N/A   Clear
12:15 PM 51.1 °F - 40.5 °F 67% 29.69 in 10.0 mi WNW 15.0 mph 20.7 mph N/A   Clear
12:35 PM 52.2 °F - 39.7 °F 63% 29.69 in 10.0 mi WNW 17.3 mph 20.7 mph N/A   Clear
12:55 PM 53.2 °F - 38.5 °F 57% 29.69 in 10.0 mi WNW 18.4 mph 25.3 mph N/A   Clear
1:15 PM 54.1 °F - 36.1 °F 51% 29.68 in 10.0 mi WNW 21.9 mph 26.5 mph N/A   Clear
1:35 PM 55.0 °F - 35.6 °F 48% 29.66 in 10.0 mi NW 19.6 mph 25.3 mph N/A   Clear
1:55 PM 56.1 °F - 34.5 °F 44% 29.65 in 10.0 mi NW 23.0 mph 27.6 mph N/A   Clear
2:15 PM 57.7 °F - 33.4 °F 40% 29.63 in 10.0 mi NW 18.4 mph 26.5 mph N/A   Clear
2:35 PM 58.1 °F - 32.7 °F 38% 29.62 in 10.0 mi NW 20.7 mph 26.5 mph N/A   Clear
2:55 PM 59.2 °F - 31.8 °F 36% 29.62 in 10.0 mi NW 20.7 mph 26.5 mph N/A   Clear
3:15 PM 59.5 °F - 32.2 °F 36% 29.62 in 10.0 mi NW 21.9 mph 28.8 mph N/A   Clear
3:35 PM 59.7 °F - 31.3 °F 34% 29.61 in 10.0 mi NW 24.2 mph 33.4 mph N/A   Clear
3:55 PM 60.4 °F - 31.1 °F 33% 29.61 in 10.0 mi NW 23.0 mph 31.1 mph N/A   Clear
4:15 PM 60.6 °F - 30.0 °F 31% 29.61 in 10.0 mi NW 25.3 mph 36.8 mph N/A   Scattered Clouds
4:35 PM 60.4 °F - 29.3 °F 31% 29.61 in 10.0 mi NW 27.6 mph 35.7 mph N/A   Clear
4:55 PM 60.1 °F - 30.9 °F 33% 29.61 in 10.0 mi NW 20.7 mph 28.8 mph N/A   Clear
5:15 PM 58.1 °F - 29.3 °F 33% 29.62 in 10.0 mi NW 19.6 mph 29.9 mph N/A   Clear
5:35 PM 58.5 °F - 29.7 °F 33% 29.62 in 10.0 mi NW 18.4 mph 24.2 mph N/A   Clear
5:55 PM 57.7 °F - 29.1 °F 34% 29.62 in 10.0 mi NW 18.4 mph 28.8 mph N/A   Clear
6:15 PM 55.4 °F - 30.2 °F 38% 29.63 in 10.0 mi NW 18.4 mph 21.9 mph N/A   Clear
6:35 PM 54.0 °F - 30.6 °F 41% 29.64 in 10.0 mi NW 16.1 mph 26.5 mph N/A   Clear
6:55 PM 52.3 °F - 30.7 °F 44% 29.64 in 10.0 mi NW 16.1 mph - N/A   Clear
7:15 PM 50.7 °F - 31.5 °F 48% 29.65 in 10.0 mi NW 10.4 mph - N/A   Clear
7:35 PM 46.0 °F 41.9 °F 32.0 °F 58% 29.66 in 10.0 mi NW 8.1 mph - N/A   Clear
7:55 PM 45.3 °F 41.6 °F 32.0 °F 60% 29.67 in 10.0 mi WNW 6.9 mph - N/A   Clear
8:15 PM 44.8 °F 39.9 °F 32.0 °F 61% 29.68 in 10.0 mi WNW 9.2 mph - N/A   Clear
8:35 PM 45.9 °F 40.0 °F 32.0 °F 58% 29.69 in 10.0 mi WNW 12.7 mph - N/A   Clear
8:55 PM 45.3 °F 39.7 °F 32.0 °F 60% 29.69 in 10.0 mi NW 11.5 mph - N/A   Clear
9:15 PM 45.7 °F 42.0 °F 33.3 °F 62% 29.70 in 10.0 mi NW 6.9 mph - N/A   Mostly Cloudy
9:35 PM 45.9 °F 43.6 °F 33.4 °F 62% 29.69 in 10.0 mi NW 4.6 mph - N/A   Overcast
9:55 PM 45.0 °F 41.2 °F 32.5 °F 62% 29.69 in 10.0 mi West 6.9 mph - N/A   Mostly Cloudy
10:15 PM 41.9 °F 36.9 °F 32.7 °F 70% 29.70 in 10.0 mi West 8.1 mph - N/A   Clear
10:35 PM 41.7 °F 36.7 °F 32.9 °F 71% 29.71 in 10.0 mi West 8.1 mph - N/A   Clear
10:55 PM 41.5 °F 37.1 °F 32.9 °F 71% 29.71 in 10.0 mi West 6.9 mph - N/A   Clear
11:15 PM 39.6 °F 35.4 °F 32.0 °F 74% 29.71 in 10.0 mi West 5.8 mph - N/A   Clear
11:35 PM 39.4 °F 36.1 °F 32.0 °F 75% 29.71 in 10.0 mi West 4.6 mph - N/A   Clear
11:55 PM 39.0 °F 34.8 °F 32.0 °F 76% 29.71 in 10.0 mi West 5.8 mph - N/A   Clear